TimePST,TemperatureF,Dew PointF,Humidity,Sea Level PressureIn,VisibilityMPH,Wind Direction,Wind SpeedMPH,Gust SpeedMPH,PrecipitationIn,Events,Conditions,WindDirDegrees,DateUTC
12:53 AM,60.1,53.1,78,29.98,4.0,NE,3.5,-,N/A,,Haze,50,2012-12-09 08:53:00
1:30 AM,60.8,53.6,77,29.99,3.0,ENE,4.6,-,N/A,,Haze,70,2012-12-09 09:30:00
1:48 AM,59.0,53.6,82,29.99,3.0,East,4.6,-,N/A,,Haze,90,2012-12-09 09:48:00
1:53 AM,59.0,53.1,81,29.99,3.0,East,4.6,-,N/A,,Haze,90,2012-12-09 09:53:00
2:53 AM,59.0,53.1,81,29.99,3.0,ENE,5.8,-,N/A,,Haze,60,2012-12-09 10:53:00
3:53 AM,57.9,52.0,81,29.98,4.0,NE,3.5,-,N/A,,Haze,40,2012-12-09 11:53:00
4:53 AM,57.9,52.0,81,29.99,5.0,ENE,5.8,-,N/A,,Haze,60,2012-12-09 12:53:00
5:53 AM,57.9,51.1,78,30.02,4.0,NE,3.5,-,N/A,,Overcast,50,2012-12-09 13:53:00
6:48 AM,57.2,50.0,77,30.02,4.0,East,3.5,-,N/A,,Scattered Clouds,90,2012-12-09 14:48:00
6:53 AM,57.0,50.0,77,30.03,4.0,East,4.6,-,N/A,,Scattered Clouds,90,2012-12-09 14:53:00
7:53 AM,57.9,51.1,78,30.03,4.0,ENE,3.5,-,N/A,,Scattered Clouds,70,2012-12-09 15:53:00
8:53 AM,60.1,51.1,72,30.05,5.0,ENE,3.5,-,N/A,,Haze,70,2012-12-09 16:53:00
9:49 AM,62.6,51.8,68,30.07,3.0,Calm,Calm,-,N/A,,Haze,0,2012-12-09 17:49:00
9:53 AM,62.1,51.1,67,30.07,4.0,ESE,3.5,-,N/A,,Haze,110,2012-12-09 17:53:00
10:30 AM,62.6,51.8,68,30.06,4.0,Calm,Calm,-,N/A,,Haze,0,2012-12-09 18:30:00
11:53 AM,66.0,51.1,59,30.03,4.0,Calm,Calm,-,N/A,,Haze,0,2012-12-09 19:53:00
12:53 PM,68.0,51.1,55,30.00,5.0,Calm,Calm,-,N/A,,Haze,0,2012-12-09 20:53:00
1:53 PM,66.9,52.0,59,30.00,6.0,Variable,4.6,-,N/A,,Haze,0,2012-12-09 21:53:00
2:53 PM,66.0,52.0,60,30.01,6.0,WSW,4.6,-,N/A,,Haze,240,2012-12-09 22:53:00
3:53 PM,64.9,52.0,63,30.02,6.0,WSW,4.6,-,N/A,,Haze,250,2012-12-09 23:53:00
4:53 PM,63.0,52.0,67,30.04,5.0,Calm,Calm,-,N/A,,Haze,0,2012-12-10 00:53:00
6:53 PM,60.1,53.1,78,30.07,4.0,Calm,Calm,-,N/A,,Haze,0,2012-12-10 02:53:00
7:53 PM,59.0,53.1,81,30.08,4.0,Calm,Calm,-,N/A,,Haze,0,2012-12-10 03:53:00
8:53 PM,57.9,52.0,81,30.10,4.0,SSE,3.5,-,N/A,,Haze,150,2012-12-10 04:53:00
9:53 PM,55.9,51.1,84,30.11,3.0,Calm,Calm,-,N/A,,Haze,0,2012-12-10 05:53:00
10:53 PM,57.0,51.1,81,30.13,3.0,Calm,Calm,-,N/A,,Haze,0,2012-12-10 06:53:00
11:53 PM,55.0,48.9,80,30.12,3.0,Calm,Calm,-,N/A,,Haze,0,2012-12-10 07:53:00